Home > Weather > Messina > Past weeks

Flag for Italy Past Weather in Messina, Italy — Yesterday and Last 2 Weeks

Now
86 °F

Sunny.


Feels Like: 87 °F
Forecast: 76 / 85 °F
Wind: 20 mph from Northwest

Location: Reggio Calabria

Current Time: Jul 27, 2016 at 5:29:03 PM

Latest Report: Jul 27, 2016 at 4:50 PM


Visibility: 10 mi

Pressure: 29.92 "Hg

Humidity: 49%

Dew Point: 64 °F

Location of MessinaLocation

Past Weather in Messina — Graph

°F

Messina Temperature Yesterday

Maximum temperature yesterday: 84 °F (at 1:50 PM)
Minimum temperature yesterday: 73 °F (at 10:50 AM)
Average temperature yesterday: 79 °F

High & Low Weather Summary for the Past Weeks

 TemperatureHumidityPressure
High95 °F (Jul 13, 1:50 PM)83% (Jul 26, 9:50 AM)30.12 "Hg (Jul 26, 9:50 AM)
Low68 °F (Jul 16, 8:50 AM)14% (Jul 23, 1:50 PM)29.80 "Hg (Jul 15, 10:50 AM)
Average81 °F50%29.95 "Hg
* Reported Jul 12 3:50 PM — Jul 27 3:50 PM, Messina, Weather by CustomWeather, © 2016

Note: Actual official high and low records may vary slightly from our data, if they occured in-between our weather recording intervals... More about our weather records

Advertising

Messina Weather History for the Previous 24 Hours

Scroll right to see more
 ConditionsComfort  
Time TempWeatherWind HumidityBarometerVisibility
3:50 PM
Wed, Jul 27
84 °FSunny.20 mph51%29.92 "Hg10 mi
2:50 PM84 °FSunny.18 mph51%29.95 "Hg10 mi
1:50 PM84 °FSunny.18 mph51%29.95 "Hg10 mi
12:50 PM84 °FSunny.17 mph51%29.95 "Hg10 mi
10:50 AM84 °FSunny.17 mph55%29.95 "Hg10 mi
9:50 AM81 °FSunny.17 mph62%29.95 "Hg10 mi
8:50 AM81 °FSunny.15 mph62%29.95 "Hg10 mi
7:50 AM79 °FSunny.12 mph65%29.95 "Hg10 mi
6:50 AM77 °FPassing clouds.12 mph65%29.95 "HgN/A
6:00 AM75 °FPassing clouds.12 mph74%29.95 "HgN/A
11:50 PM
Tue, Jul 26
77 °FClear.8 mph74%29.98 "Hg10 mi
10:50 PM77 °FPassing clouds.14 mph74%29.95 "HgN/A
9:50 PM77 °FPassing clouds.12 mph74%29.95 "HgN/A
8:50 PM77 °FPassing clouds.10 mph74%29.95 "HgN/A
7:50 PM79 °FPassing clouds.13 mph65%29.95 "HgN/A
6:50 PM79 °FPassing clouds.13 mph70%29.92 "HgN/A
5:50 PM82 °FPassing clouds.20 mph58%29.92 "HgN/A
Weather by CustomWeather, © 2016

See weather overviewHow to use our weather pages